Location: Okie-Tex Star Party
(36.8978°N, 102.9520°W)
Time: 01:15:49
(UTC-05:00)

Oscar 16 - Visible Passes

Search period start: 28 July 2014 00:00
Search period end: 07 August 2014 00:00
Orbit: 775 x 792 km, 98.5° (Epoch: 27 July)

Date Brightness Start Highest point End Pass type
(mag) Time Alt. Az. Time Alt. Az. Time Alt. Az.
28 Jul 12.0 02:52:37 10° NNE 02:56:12 32° ENE 02:56:12 32° ENE visible
28 Jul 12.0 04:32:23 10° NNW 04:36:30 25° WNW 04:36:47 24° WNW visible
29 Jul 12.9 02:22:21 10° NE 02:24:24 16° ENE 02:24:24 16° ENE visible
29 Jul 11.2 04:00:25 10° N 04:04:59 47° WNW 04:04:59 47° WNW visible
30 Jul 11.0 03:28:55 10° NNE 03:33:12 62° NNE 03:33:12 62° NNE visible
30 Jul 12.8 05:11:19 10° NW 05:12:42 11° WNW 05:13:47 10° WNW visible
31 Jul 11.9 02:57:50 10° NNE 03:01:24 35° ENE 03:01:24 35° ENE visible
31 Jul 12.1 04:37:52 10° NNW 04:41:46 22° WNW 04:41:59 22° WNW visible
01 Aug 12.8 02:27:24 10° NE 02:29:36 18° ENE 02:29:36 18° ENE visible
01 Aug 11.3 04:05:48 10° N 04:10:11 41° NW 04:10:11 41° NW visible
02 Aug 11.1 03:34:13 10° NNE 03:38:23 59° N 03:38:23 59° N visible
03 Aug 11.9 03:03:04 10° NNE 03:06:35 37° ENE 03:06:35 37° ENE visible
03 Aug 12.3 04:43:23 10° NNW 04:47:01 20° WNW 04:47:10 20° WNW visible
04 Aug 12.7 02:32:28 10° NE 02:34:47 19° ENE 02:34:47 19° ENE visible
04 Aug 11.5 04:11:11 10° N 04:15:22 37° NW 04:15:22 37° NW visible
05 Aug 11.2 03:39:32 10° N 03:43:33 54° N 03:43:33 54° N visible
06 Aug 11.9 03:08:18 10° NNE 03:11:45 38° NE 03:11:45 38° NE visible
06 Aug 12.4 04:48:55 10° NNW 04:52:16 18° WNW 04:52:20 18° WNW visible
